Location: *
(52.2090°N, 4.1550°W)
Time: 08:51:13
(UTC+00:00)

Meteor 2-3 Rocket - Pass Details

Date: 19 July 2019
Orbit: 840 x 887 km, 81.2° (Epoch: 23 August)

Event Time Altitude Azimuth Distance (km) Brightness Sun altitude
Exits shadow 21:25:59 - 163° (SSE) 2,872 5.9 -7.5°
Reaches altitude 10° 21:26:55 10° 160° (SSE) 2,538 5.6 -7.6°
Maximum altitude 21:32:17 41° 92° (E) 1,261 4.3 -8.1°
Drops below altitude 10° 21:37:42 10° 24° (NNE) 2,563 6.6 -8.6°
Sets 21:40:17 0° 18° (NNE) 3,506 7.4 -8.9°
